Flag for United Kingdom Weather past 2 weeks in Londonderry, Northern Ireland, United Kingdom

Now
61 °F

Partly sunny.


Feels Like: 61 °F
Forecast: 49 / 68 °F
Wind: 2 mph from North

Location: Eglinton / Londonderry

Current Time: Sep 2, 2014 at 8:58:25 PM

Latest Report: Sep 2, 2014 at 7:50 PM


Visibility: N/A

Pressure: 30.21 "Hg

Humidity: 77%

Dew point: 54 °F

Location of LondonderryLocation

Historic Weather in Londonderry — Graph

°F

Londonderry temperature yesterday

Maximum temperature yesterday: 64 °F (at 4:20 PM)
Minimum temperature yesterday: 55 °F (at 7:20 AM)
Average temperature yesterday: 60 °F

Past Weeks' High & Low Weather Summary

 TemperatureHumidityPressure
High68 °F (Aug 26, 2:50 PM)94% (Aug 19, 8:20 AM)30.24 "Hg (Aug 19, 8:20 AM)
Low46 °F (Aug 19, 6:20 AM)52% (Aug 24, 1:50 PM)29.42 "Hg (Aug 28, 8:20 PM)
Average59 °F76%29.89 "Hg
* Reported Aug 19 5:50 AM — Sep 2 7:20 PM, Londonderry, Weather by CustomWeather, © 2014

Note: Actual official high and low records may vary slightly from our data, if they occured in-between our weather recording intervals... More about our weather records

Advertising

Londonderry weather history for previous 24 hours

 ConditionsComfort  
Time TempWeatherWind HumidityBarometerVisibility
7:20 PM
Sep 2
61 °FPartly sunny.1 mph72%30.21 "HgN/A
6:50 PM59 °FPartly sunny.3 mph77%30.21 "HgN/A
6:20 PM59 °FPartly sunny.5 mph77%30.21 "HgN/A
5:50 PM61 °FPartly sunny.6 mph77%30.21 "HgN/A
5:20 PM61 °FPartly sunny.7 mph77%30.21 "HgN/A
4:50 PM61 °FPartly sunny.7 mph77%30.21 "HgN/A
4:20 PM63 °FPartly sunny.6 mph68%30.21 "HgN/A
3:50 PM61 °FPartly sunny.5 mph72%30.21 "HgN/A
3:20 PM63 °FPartly sunny.5 mph68%30.21 "HgN/A
2:50 PM63 °FPartly sunny.5 mph68%30.24 "HgN/A
2:20 PM61 °FPartly sunny.5 mph68%30.24 "HgN/A
1:50 PM61 °FPartly sunny.6 mph68%30.24 "HgN/A
1:20 PM61 °FPartly sunny.5 mph72%30.24 "HgN/A
12:50 PM61 °FPartly sunny.5 mph72%30.24 "HgN/A
12:20 PM61 °FScattered clouds.8 mph72%30.24 "HgN/A
11:50 AM61 °FScattered clouds.5 mph72%30.24 "HgN/A
11:20 AM61 °FScattered clouds.5 mph72%30.24 "HgN/A
10:50 AM61 °FScattered clouds.3 mph77%30.24 "HgN/A
10:20 AM59 °FScattered clouds.5 mph82%30.24 "HgN/A
9:50 AM59 °FScattered clouds.5 mph82%30.24 "HgN/A
9:20 AM59 °FScattered clouds.3 mph77%30.24 "HgN/A
8:50 AM57 °FScattered clouds.2 mph82%30.24 "HgN/A
8:20 AM57 °FScattered clouds.2 mph88%30.24 "HgN/A
7:50 AM55 °FPartly sunny.3 mph94%30.24 "HgN/A
Weather by CustomWeather, © 2014

See weather overviewHow to use our weather pages